Location: Utrecht
(52.0907°N, 5.1214°E)
Time: 07:51:45
(UTC+02:00)

SPROUT - Pass Details

Date: 09 July 2022
Orbit: 588 x 598 km, 97.9° (Epoch: 18 August)

Event Time Altitude Azimuth Distance (km) Brightness Sun altitude
Exits shadow 03:35:45 13° 238° (WSW) 1,739 ? -11.7°
Maximum altitude 03:37:43 17° 270° (W) 1,521 ? -11.5°
Drops below altitude 10° 03:40:29 10° 312° (NW) 1,931 ? -11.4°
Sets 03:43:21 0° 333° (NNW) 2,841 ? -11.2°
